FENGYUN 1C DEB

Satellite information

Favourite Embed

Satellite Type and Status

DEBRISIN ORBIT

Key statistics

Satellite FENGYUN 1C DEB at a glance.

Uptime

9618

Days in orbit

Revolutions

≈ 14.0

Per day

Orbit

SSO

Sun Synchronous Orbit

Inclination

102.0

Latest

Satellite identification and parameters

Extended collection of information and parameters for FENGYUN 1C DEB.

Object identification

Identified? True

Debris? True

Object name: FENGYUN 1C DEB

International designator: 1999-025BZK

Object number (NORAD): 31568

Object ID (CCSDS): 31568

Country: PEOPLES REPUBLIC OF CHINA (PRC)

Current information (Y/N): Y

RCS size: SMALL

Orbital parameters

Period: 102.689 minutes

Inclination: 102.0482 deg

SMA: 7263.992 km

Apoapsis: 983.332 km

Periapsis: 788.383 km

RAAN: 102.3447 deg

Eccentricy: 0.01341889

Argument of periapsis: 358.8177 deg

Mean anomaly: 1.2642 deg

Mean motion: 14.02296009 rev/day

Mean motion (dot): 0.00002596 rev/day2

B* drag term: 0.0016063015 1/REarth

Two-line elements (TLE)

Creation date: Sept. 8, 2025, 3:16 a.m.

Reference frame: TEME

Reference center: EARTH

Epoch: Sept. 7, 2025, 8:17 p.m. UTC

TLE line 0: 0 FENGYUN 1C DEB

TLE line 1: 1 31568U 99025BZK 25250.84539670 .00002596 00000-0 16063-2 0 9994

TLE line 2: 2 31568 102.0482 102.3447 0134189 358.8177 1.2642 14.02296009932358

Live tracking on map

Real-time ground track for satellite FENGYUN 1C DEB.

In-orbit conjunctions

A list of the most updated potential collisions computed for object FENGYUN 1C DEB.

Target Orbit TCA Probability of collision Miss distance Type
SL-8 R/B LEO 2025-07-23 00:26:43 0.0001401271 720.0 (m) ROCKET BODY
THORAD AGENA D DEB SSO 2024-09-28 23:12:27 0.0005328843 75.0 (m) DEBRIS
DMSP 5D-2 F8 DEB SSO 2024-08-11 05:11:38 0.0001640476 277.0 (m) DEBRIS

Associated space launch

Chinese polar orbiting meteorological satellite

FENGYUN 1C DEB was lifted into orbit during the mission ‘Long March 4B | Feng Yun 1C’, on board a Long March 4B space rocket.

The launch took place on May 10, 1999, 1:33 a.m. from Launch Complex 7.

For more information about the launch, click the button.

Launch to space Long March 4B | Feng Yun 1C
Long March 4B | Feng Yun 1C

Agency: N/A

Status: Launch Successful

Launch date: May 10, 1999, 1:33 a.m. UTC

Rocket: Long March 4B

Launch pad: Launch Complex 7

Location: Taiyuan Satellite Launch Center, People's Republic of China

...

Latest news about this satellite

There are no fresh news available about this satellite. Check back as we update our databases every day.


Newsletter sign-up

Weekly statistics, charts and insights to help you stay on top of the space industry.